{"data":{"norad_id":57956,"epoch":"2026-08-19T22:15:40.305312Z","epoch_age_seconds":2961659,"freshness":"OLD","line1":"1 57956U 23084BZ  26231.92754983  .05654060  26496-5  58350-3 0  9992","line2":"2 57956  97.5869  39.5782 0009990 269.6148  90.4004 16.37754590165348","mean_motion":16.3775459,"eccentricity":0.000999,"inclination_deg":97.5869,"raan_deg":39.5782,"arg_perigee_deg":269.6148,"mean_anomaly_deg":90.4004,"bstar":0.0005835,"rev_number":16534,"period_min":87.925261134515,"perigee_km":165.23906058377,"apogee_km":178.3257996051,"semimajor_km":6549.9194300944,"source":"CELESTRAK","updated_at":"2026-08-20T09:00:21.053930Z"}}